If you wish to contribute or participate in the discussions about articles you are invited to join SKYbrary as a registered user

 Actions

Francistown Airport

From SKYbrary Wiki

FBFT
Airport
ICAO: FBFT – IATA: FRW
Summary
Name Francistown Airport
Region Africa
Territory Botswana BW.gif
Location Francistown, North east district
Serving Francistown
Elevation 1,000.658 m <br />3,283 ft <br />3,283 ft1,000.658 m <br />
Coordinates 21° 9' 33.98" S, 27° 28' 27.98" E
Runways
Designator Length Width Surface ROPS
11/29 2200 m7,217.848 ft <br /> 30 m98.425 ft <br /> ASP /
16/34 1264 m4,146.982 ft <br /> 22 m72.178 ft <br /> GVL /


METAR
Observation FBFT 051600Z 14006KT 9999 FEW030 27/17 Q1014
Station Francistown
Date/Time 05 March 2021 16:00:00
Wind direction 140°
Wind speed 06 kts
Lowest cloud amount few clouds
Temperature 27°C
Dew point 17°C
Humidity 54%
QNH 1014 hPa
Weather condition n/a

Airport serving Francistown, Botswana.

Climatology

Hot, semi-arid/Steppe climate (Köppen climate classification BSh)

Maps

Terrain

Loading map...

Airport Layout

Loading map...


Accidents & Serious Incidents at or in vicinity of FBFT

None on SKYbrary